Regional Weather Roundup
Issued by NWS

Home | Current Version | Previous Version | Text Only | Print | Product List | Glossary On
Versions: 1 2 3 4 5 6 7 8 9 10 11 12 13 14 15 16 17 18 19 20 21 22 23 24 25 26 27 28 29 30 31 32 33 34 35 36 37 38 39 40 41 42 43 44 45 46 47 48 49 50
000
ASUS43 KDTX 202110
RWRMI
MICHIGAN HOURLY REGIONAL WEATHER ROUNDUP
NATIONAL WEATHER SERVICE DETROIT/PONTIAC MI
400 PM EST SAT DEC 20 2014

NOTE: "FAIR" INDICATES FEW OR NO CLOUDS BELOW 12,000 FEET WITH NO
SIGNIFICANT WEATHER AND/OR OBSTRUCTION TO VISIBILITY.

MIZ047>049-052>055-059>063-066>070-074>076-081>083-202200-
SOUTHEAST LOWER MICHIGAN

CITY           SKY/WX    TMP DP  RH WIND       PRES   REMARKS
ADRIAN         CLOUDY    30  21  69 S3        30.26R
ALMA           MOCLDY    29  24  79 CALM      30.26S
ANN ARBOR      CLOUDY    30  21  69 CALM      30.25S
BAD AXE        CLOUDY    29  22  75 CALM      30.27R
CARO           CLOUDY    30  20  67 CALM      30.26R
DETROIT CITY   CLOUDY    32  21  64 CALM      30.27S
DETROIT        CLOUDY    30  22  72 S3        30.27S
FLINT          CLOUDY    32  20  61 W3        30.26R
GROSSE ILE     CLOUDY    30  23  74 CALM      30.26R
HILLSDALE      CLOUDY    30  22  71 CALM      30.23R
HOWELL         CLOUDY    28  21  74 CALM      30.24S

CITY           SKY/WX    TMP DP  RH WIND       PRES   REMARKS
JACKSON        CLOUDY    29  21  72 CALM      30.24S
LAMBERTVILLE   CLOUDY    32  23  69 CALM      30.26S
LANSING        CLOUDY    30  20  66 CALM      30.26R
LAPEER         CLOUDY    29  21  70 W3        30.26R
MASON          CLOUDY    28  21  74 CALM      30.25S
MONROE         CLOUDY    30  25  80 CALM      30.26R
MT. CLEMENS    CLOUDY    30  21  67 W3        30.25R
PONTIAC        CLOUDY    28  19  69 W3        30.24R
PORT HOPE        N/A     30  20  66 W3        30.25R
PORT HURON     CLOUDY    28  21  74 CALM      30.27S
TRI CITIES     CLOUDY    31  22  69 CALM      30.27S
TROY           CLOUDY    32  20  61 CALM      30.27S
SAGINAW HB     CLOUDY    32  23  69 CALM      30.27R
$$
MIZ043>046-050>051-056>058-064>065-071>073-077>080-202200-
SOUTHWEST LOWER MICHIGAN

CITY           SKY/WX    TMP DP  RH WIND       PRES   REMARKS
BATTLE CREEK   CLOUDY    33  22  63 SW3       30.24R
BENTON HARBOR  CLOUDY    32  26  78 SW7       30.25R WCI  26
BIG RAPIDS     CLOUDY    30  24  78 CALM      30.23R
COLDWATER      CLOUDY    31  24  74 W5        30.24R WCI  27
FREMONT        CLOUDY    29  26  89 CALM      30.24S FOG
HOLLAND        MIX PCPN  31  26  82 SE3       30.26R
GRAND RAPIDS   CLOUDY    32  23  69 CALM      30.25R
IONIA          FAIR      31  23  70 SE3       30.24S
KALAMAZOO      CLOUDY    31  24  75 CALM      30.25R
LUDINGTON      CLOUDY    31  26  83 SE5       30.25S WCI  26
MARSHALL       CLOUDY    30  20  67 CALM      30.24R
MOUNT PLEASANT MOCLDY    29  23  77 CALM      30.25S
MUSKEGON       CLOUDY    30  24  78 SE7       30.25S WCI  23
SOUTH HAVEN    CLOUDY    31  28  88 CALM      30.25R FOG
$$
MIZ016>042-202200-
NORTHERN LOWER MICHIGAN

CITY           SKY/WX    TMP DP  RH WIND       PRES   REMARKS
ALPENA         MOCLDY    28  20  71 SW3       30.26R
BEAVER ISLAND  MOCLDY    28  25  86 SE5       30.24S WCI  23
BELLAIRE       CLOUDY    30  22  73 CALM      30.26R
CADILLAC       CLOUDY    27  21  76 CALM      30.20S
CHARLEVOIX     CLOUDY    28  23  80 SE3       30.28R
FRANKFORT      CLOUDY    30  25  80 SE5       30.24R WCI  25
GAYLORD        CLOUDY    25  19  78 CALM      30.21R
GRAYLING       CLOUDY    24  19  81 S3        30.24R
HARBOR SPRINGS CLOUDY    27  20  76 E3        30.25R
HOUGHTON LAKE  CLOUDY    25  18  74 W5        30.24R WCI  19
MANISTEE       CLOUDY    28  21  74 SE3       30.25S
OSCODA         MOCLDY    29  23  76 S3        30.26R
PELLSTON       MOCLDY    26  19  74 SE5       30.26R WCI  20
ROGERS CITY    MOCLDY    26  22  85 CALM      30.27R
TRAVERSE CITY  CLOUDY    31  22  69 SE5       30.24R WCI  26
$$
MIZ007>008-015-202200-
EASTERN UPPER MICHIGAN

CITY           SKY/WX    TMP DP  RH WIND       PRES   REMARKS
KINROSS        PTCLDY    28  23  80 SE3       30.24R
MACKINAC ISLAN PTCLDY    27  20  75 CALM      30.25R
NEWBERRY       CLOUDY    27  24  88 S6        30.22R WCI  20
S. S. MARIE    PTCLDY    24  17  74 S5        30.27R WCI  18
MUNISING         N/A     31  20  63 S5        30.21R WCI  26
$$
MIZ004>006-011>014-085-202200-
CENTRAL UPPER MICHIGAN

CITY           SKY/WX    TMP DP  RH WIND       PRES   REMARKS
MANISTIQUE     CLOUDY    30  24  77 W6        30.23R WCI  24
ESCANABA       CLOUDY    28  21  74 CALM      30.23R
MENOMINEE      CLOUDY    30  23  74 CALM      30.23R
SAWYER-GWINN   CLOUDY    25  23  93 SW5       30.17S WCI  19
$$
MIZ001>003-009>011-084-202200-
WESTERN UPPER MICHIGAN

CITY           SKY/WX    TMP DP  RH WIND       PRES   REMARKS
IRON MOUNTAIN  CLOUDY    28  24  85 S6        30.18R WCI  22
HOUGHTON       CLOUDY    26  22  84 S7        30.14S WCI  18
COPPER HARBOR    N/A     30  23  75 SW3       30.17R
IRONWOOD       CLOUDY    30  27  86 S7        30.11R WCI  23
$$

ABBREVIATIONS USED IN REMARKS
   TC - TEMPERATURE IN CELSIUS
  WCI - WIND CHILL INDEX
   HX - HEAT INDEX
  VSB - VISIBILITY



USA.gov is the U.S. government's official web portal to all federal, state and local government web resources and services.